Home > Weather > Charlottetown > Past weeks

Flag for Canada Past Weather in Charlottetown, Prince Edward Island, Canada — Yesterday and Last 2 Weeks

Now
41 °F

Fog.


Feels Like: 36 °F
Forecast: 44 / 58 °F
Wind: 8 mph from North

Location: Charlottetown

Current Time: May 27, 2016 at 3:45:53 AM

Latest Report: May 27, 2016 at 3:00 AM


Visibility: 5 mi

Pressure: 30.24 "Hg

Humidity: 93%

Dew Point: 39 °F

Location of CharlottetownLocation

Past Weather in Charlottetown — Graph

°F

Charlottetown Temperature Yesterday

Maximum temperature yesterday: 61 °F (at 9:00 AM)
Minimum temperature yesterday: 41 °F (at 8:00 PM)
Average temperature yesterday: 50 °F

High & Low Weather Summary for the Past Weeks

 TemperatureHumidityPressure
High79 °F (May 21, 3:00 PM)100% (May 14, 3:00 PM)30.25 "Hg (May 14, 3:00 PM)
Low27 °F (May 13, 4:00 AM)26% (May 13, 1:00 PM)29.40 "Hg (May 16, 2:00 AM)
Average53 °F74%29.89 "Hg
* Reported May 12 2:00 AM — May 27 2:00 AM, Charlottetown, Weather by CustomWeather, © 2016

Note: Actual official high and low records may vary slightly from our data, if they occured in-between our weather recording intervals... More about our weather records

Advertising

Charlottetown Weather History for the Previous 24 Hours

Scroll right to see more
 ConditionsComfort  
Time TempWeatherWind HumidityBarometerVisibility
2:00 AM
Fri, May 27
41 °FFog.10 mph93%30.23 "Hg4 mi
1:00 AM41 °FDrizzle. Fog.16 mph93%30.24 "Hg2 mi
12:00 AM41 °FDrizzle. Fog.12 mph93%30.25 "Hg2 mi
11:00 PM
Thu, May 26
41 °FDrizzle. Fog.15 mph93%30.24 "Hg2 mi
10:00 PM41 °FDrizzle. Fog.15 mph93%30.22 "Hg2 mi
9:00 PM41 °FDrizzle. Fog.13 mph93%30.21 "Hg2 mi
8:00 PM41 °FDrizzle. Fog.12 mph100%30.19 "Hg2 mi
7:00 PM43 °FDrizzle. Fog.12 mph93%30.15 "Hg2 mi
6:00 PM43 °FDrizzle. Fog.13 mph93%30.13 "Hg2 mi
5:00 PM45 °FDrizzle. Fog.17 mph93%30.10 "Hg2 mi
4:00 PM45 °FDrizzle. Fog.14 mph93%30.07 "Hg2 mi
3:00 PM46 °FDrizzle. Fog.17 mph87%30.05 "Hg6 mi
2:00 PM48 °FFog.18 mph87%30.03 "Hg6 mi
1:00 PM50 °FFog.17 mph88%30.01 "Hg6 mi
12:00 PM48 °FLow clouds.15 mph94%29.98 "Hg15 mi
11:00 AM52 °FLow clouds.9 mph94%29.96 "Hg15 mi
10:50 AM54 °FLow clouds.12 mph88%29.96 "Hg15 mi
10:00 AM59 °FOvercast.9 mph82%29.94 "Hg15 mi
9:00 AM61 °FPartly sunny.8 mph83%29.93 "Hg15 mi
8:00 AM59 °FPartly sunny.7 mph88%29.92 "Hg15 mi
7:00 AM54 °FMostly cloudy.6 mph94%29.91 "Hg15 mi
6:00 AM54 °FPartly cloudy.8 mph94%29.89 "Hg12 mi
5:00 AM54 °FLow clouds.13 mph94%29.86 "Hg7 mi
4:00 AM54 °FLow clouds.9 mph94%29.85 "Hg10 mi
3:00 AM54 °FPassing clouds.8 mph94%29.86 "Hg10 mi
Weather by CustomWeather, © 2016

See weather overviewHow to use our weather pages